DW8253 Weather Reports


time (UTC)temp
C
wind
direction
speed
KPH
gust
KPH
rain 1hr
cm
rain 24hr
cm
rain mn
cm
humidity
%
barometer
mb
20260510072307 15 82 6.4 19.3 0.00 0.79 0.15 92 867.3
20260510071307 15 96 6.4 11.3 0.00 0.79 0.15 91 867.4
20260510070307 15 243 6.4 14.5 0.10 0.79 0.15 91 867.4
20260510065742 15 221 6.4 16.1 0.15 0.79 0.15 92 867.4
20260510064256 15 197 6.4 17.7 0.15 0.79 0.15 92 867.4
20260510063254 15 126 8.0 16.1 0.15 0.79 0.15 92 867.4
20260510062743 15 163 8.0 17.7 0.15 0.79 0.15 92 867.4
20260510061256 15 115 8.0 16.1 0.13 0.76 0.13 91 867.4
20260510060256 15 133 8.0 12.9 0.03 0.66 0.03 91 867.4
20260510055254 15 121 8.0 14.5 0.00 0.64 0.00 91 867.4
20260510054255 15 156 8.0 16.1 0.10 0.64 0.00 91 867.4
20260510053253 15 57 6.4 12.9 0.23 0.64 0.00 91 867.4
20260510052736 15 152 6.4 14.5 0.33 0.64 0.00 90 867.4
20260510051737 15 187 6.4 12.9 0.51 0.64 0.00 90 867.4
20260510050254 16 108 6.4 14.5 0.58 0.64 0.00 90 867.5
20260510050219 16 80 6.4 14.5 0.61 0.64 0.64 90 867.5
20260510044245 16 131 6.4 14.5 0.53 0.56 0.56 89 867.5
20260510044207 16 80 6.4 16.1 0.41 0.43 0.43 88 867.5
20260510042245 16 33 8.0 20.9 0.30 0.33 0.33 87 867.6
20260510041245 17 48 11.3 20.9 0.13 0.13 0.13 84 867.6
20260510040243 18 50 12.9 19.3 0.05 0.05 0.05 77 867.8
20260510035243 18 43 11.3 22.5 0.00 0.03 0.03 78 867.9
20260510034242 19 102 9.7 19.3 0.03 0.03 0.03 75 867.9
20260510033243 19 198 12.9 20.9 0.03 0.03 0.03 73 868.0
20260510032243 20 52 11.3 19.3 0.00 0.00 0.00 69 868.0
20260510031243 21 352 4.8 20.9 0.00 0.00 0.00 64 868.1
20260510030727 22 163 17.7 29.0 0.00 0.00 0.00 60 868.2
20260510025727 25 30 6.4 12.9 0.00 0.00 0.00 50 868.9
20260510024243 24 359 9.7 24.1 0.00 0.00 0.00 47 868.9
20260510023728 22 354 12.9 30.6 0.00 0.00 0.00 55 868.7
20260510022244 22 226 11.3 29.0 0.00 0.00 0.00 57 868.5
20260510021244 23 218 17.7 32.2 0.00 0.00 0.00 55 868.6
20260510020241 24 157 9.7 25.7 0.00 0.00 0.00 53 868.8
20260510015241 25 194 19.3 32.2 0.00 0.00 0.00 49 868.9
20260510014239 25 234 12.9 20.9 0.00 0.00 0.00 51 868.8
20260510013239 25 232 14.5 22.5 0.00 0.00 0.00 50 868.9
20260510012721 25 213 22.5 38.6 0.00 0.00 0.00 52 868.9
20260510011716 25 225 25.7 43.5 0.00 0.00 0.00 51 868.9
20260510010240 25 243 24.1 35.4 0.00 0.00 0.00 55 868.9
20260510005239 26 249 16.1 35.4 0.00 0.00 0.00 49 869.0
20260510004240 26 263 6.4 14.5 0.00 0.00 0.00 48 869.0
20260510003239 26 227 6.4 14.5 0.00 0.00 0.00 48 869.1
20260510002236 26 212 8.0 14.5 0.00 0.00 0.00 49 869.1
20260510001237 27 109 6.4 14.5 0.00 0.00 0.00 48 869.1
20260510000236 27 215 4.8 19.3 0.00 0.00 0.00 46 869.2
20260509235237 27 306 6.4 16.1 0.00 0.00 0.00 44 869.2
20260509234237 27 274 6.4 14.5 0.00 0.00 0.00 43 869.3
20260509233237 28 319 6.4 20.9 0.00 0.00 0.00 43 869.3
20260509232235 28 160 8.0 20.9 0.00 0.00 0.00 41 869.4
20260509230236 29 284 6.4 17.7 0.00 0.00 0.00 41 869.5
20260509225236 30 199 4.8 11.3 0.00 0.00 0.00 38 869.7
20260509225205 30 257 9.7 17.7 0.00 0.00 0.00 39 869.7
20260509223722 30 183 8.0 25.7 0.00 0.00 0.00 40 869.8
20260509222710 30 225 8.0 24.1 0.00 0.00 0.00 40 869.8
20260509221233 30 338 9.7 24.1 0.00 0.00 0.00 40 869.8
20260509220232 30 208 8.0 20.9 0.00 0.00 0.00 41 869.7
20260509220144 30 212 8.0 22.5 0.00 0.00 0.00 41 869.8
20260509214232 30 250 6.4 20.9 0.00 0.05 0.00 41 869.8
20260509213232 30 196 9.7 20.9 0.00 0.15 0.00 40 869.8
20260509212705 30 193 8.0 24.1 0.00 0.28 0.00 39 869.8
20260509212208 30 231 9.7 24.1 0.00 0.28 0.00 39 869.8
20260509210713 30 237 9.7 20.9 0.00 0.28 0.00 38 869.7
20260509205232 30 225 11.3 29.0 0.00 0.28 0.00 38 869.7
20260509204232 30 237 12.9 22.5 0.00 0.28 0.00 35 869.7
20260509203228 30 235 12.9 22.5 0.00 0.28 0.00 35 869.7
20260509202228 30 223 9.7 20.9 0.00 0.28 0.00 36 869.8
20260509201715 30 210 9.7 19.3 0.00 0.28 0.00 35 869.7
20260509200229 29 220 9.7 16.1 0.00 0.28 0.00 36 869.6
20260509195228 29 203 9.7 20.9 0.00 0.28 0.00 37 869.6
20260509194718 29 201 8.0 25.7 0.00 0.28 0.00 36 869.7
20260509193229 28 212 12.9 24.1 0.00 0.28 0.00 35 869.6
20260509192227 28 207 9.7 25.7 0.00 0.28 0.00 38 869.5
20260509191227 28 211 14.5 22.5 0.00 0.28 0.00 38 869.5
20260509190702 28 217 8.0 25.7 0.00 0.28 0.00 36 869.5
20260509185227 27 185 12.9 20.9 0.00 0.28 0.00 41 869.4
20260509184228 27 211 9.7 20.9 0.00 0.28 0.00 39 869.4
20260509183228 27 214 6.4 20.9 0.00 0.28 0.00 38 869.5
20260509182228 27 2 9.7 24.1 0.00 0.28 0.00 40 869.3
20260509181224 27 215 11.3 22.5 0.00 0.28 0.00 40 869.4
20260509180224 27 71 9.7 24.1 0.00 0.28 0.00 41 869.3
20260509175224 27 241 9.7 19.3 0.00 0.28 0.00 39 869.4
20260509174225 27 227 9.7 20.9 0.00 0.28 0.00 38 869.3
20260509173225 27 231 11.3 20.9 0.00 0.28 0.00 37 869.3
20260509172227 27 96 6.4 20.9 0.00 0.28 0.00 39 869.4
20260509171223 27 216 9.7 25.7 0.00 0.28 0.00 38 869.3
20260509170700 27 286 8.0 17.7 0.00 0.28 0.00 39 869.3
20260509165222 26 69 8.0 17.7 0.00 0.28 0.00 40 869.3
20260509164223 26 242 4.8 17.7 0.00 0.28 0.00 41 869.2
20260509163222 26 319 4.8 14.5 0.00 0.28 0.00 42 869.2
20260509162220 25 157 9.7 20.9 0.00 0.28 0.00 41 869.1
20260509161218 25 216 9.7 19.3 0.00 0.28 0.00 43 869.1
20260509160219 25 226 8.0 19.3 0.00 0.28 0.00 44 869.0
20260509155219 25 205 8.0 17.7 0.00 0.28 0.00 45 869.0
20260509154219 24 232 8.0 17.7 0.00 0.28 0.00 45 868.9
20260509153659 24 219 6.4 14.5 0.00 0.28 0.00 47 868.9
20260509153148 23 197 4.8 11.3 0.00 0.28 0.00 47 868.9
20260509151214 23 200 4.8 12.9 0.00 0.28 0.00 48 868.8
20260509145653 22 216 8.0 11.3 0.00 0.28 0.00 52 868.6
20260509144215 22 220 6.4 11.3 0.00 0.28 0.00 49 868.6
20260509143215 23 195 3.2 9.7 0.00 0.28 0.00 52 868.6
20260509142215 23 0 1.6 6.4 0.00 0.28 0.00 51 868.7
20260509141215 22 140 1.6 6.4 0.00 0.28 0.00 57 868.7
20260509140214 22 42 3.2 4.8 0.00 0.28 0.00 57 868.6
20260509135214 21 0 1.6 8.0 0.00 0.28 0.00 59 868.6
20260509134215 20 0 3.2 6.4 0.00 0.28 0.00 66 868.2
20260509133214 19 320 1.6 6.4 0.00 0.28 0.00 72 868.1
20260509132655 18 358 1.6 4.8 0.00 0.28 0.00 74 868.0
20260509131215 16 0 0.0 4.8 0.00 0.28 0.00 86 867.8
20260509130650 14 280 1.6 4.8 0.00 0.28 0.00 88 867.4
20260509125211 13 236 0.0 3.2 0.00 0.28 0.00 87 867.2
20260509124211 13 250 1.6 4.8 0.00 0.28 0.00 88 867.1
20260509123212 12 0 1.6 6.4 0.00 0.28 0.00 92 867.1
20260509122211 11 24 3.2 6.4 0.00 0.28 0.00 93 866.9
20260509121210 11 359 1.6 4.8 0.00 0.28 0.00 94 866.8
20260509120647 11 0 3.2 4.8 0.00 0.28 0.00 94 866.8
20260509115211 11 265 4.8 8.0 0.00 0.28 0.00 96 866.9
20260509114202 10 232 6.4 9.7 0.00 0.28 0.00 95 866.7
20260509113202 10 243 6.4 9.7 0.00 0.28 0.00 93 866.7
20260509112158 10 259 3.2 6.4 0.00 0.28 0.00 92 866.7
20260509111144 11 40 3.2 6.4 0.00 0.28 0.00 92 866.8
20260509110617 11 340 3.2 9.7 0.00 0.28 0.00 92 866.8
20260509105132 11 271 6.4 11.3 0.00 0.28 0.00 91 866.8
20260509104130 11 251 3.2 8.0 0.00 0.28 0.00 91 866.9
20260509103129 12 344 4.8 8.0 0.00 0.28 0.00 89 866.9
20260509102130 12 328 3.2 4.8 0.00 0.28 0.00 89 867.0
20260509101130 12 328 3.2 8.0 0.00 0.28 0.00 89 867.0
20260509100121 12 275 6.4 8.0 0.00 0.28 0.00 88 866.9
20260509095115 12 312 3.2 6.4 0.00 0.28 0.00 86 866.9
20260509094115 12 308 1.6 3.2 0.00 0.28 0.00 84 867.0
20260509093115 12 8 4.8 6.4 0.00 0.28 0.00 85 867.0
20260509092114 12 355 3.2 6.4 0.00 0.28 0.00 82 867.0
20260509091115 12 9 0.0 3.2 0.00 0.28 0.00 82 867.0
20260509090114 13 335 1.6 4.8 0.00 0.28 0.00 80 867.0
20260509085114 13 0 1.6 3.2 0.00 0.28 0.00 81 867.1
20260509084101 13 270 3.2 4.8 0.00 0.28 0.00 80 867.1
20260509083102 14 2 3.2 4.8 0.00 0.28 0.00 79 867.2
20260509082102 14 321 3.2 6.4 0.00 0.28 0.00 76 867.3
20260509081102 13 21 3.2 6.4 0.00 0.28 0.00 80 867.2
20260509075048 14 285 3.2 4.8 0.00 0.28 0.00 76 867.3
20260509074056 14 319 3.2 8.0 0.00 0.28 0.00 73 867.3
20260509073048 15 4 3.2 8.0 0.00 0.28 0.00 72 867.3